Regional Weather Roundup
Issued by NWS Little Rock, AR

Home | Current Version | Previous Version | Graphics & Text | Print | Product List | Glossary On
Versions: 1 2 3 4 5 6 7 8 9 10 11 12 13 14 15 16 17 18 19 20 21 22 23 24 25 26 27 28 29 30 31 32 33 34 35 36 37 38 39 40 41 42 43 44 45 46 47 48 49 50
000
ASUS44 KLZK 251705
RWRLZK

WEATHER ROUNDUP FOR ARKANSAS
NATIONAL WEATHER SERVICE LITTLE ROCK AR
1200 PM CDT THU MAY 25 2017

NOTE: "FAIR" INDICATES FEW OR NO CLOUDS BELOW 12,000 FEET WITH NO
SIGNIFICANT WEATHER AND/OR OBSTRUCTIONS TO VISIBILITY.

ARZ001-003-010-029-251800-
NORTHWEST ARKANSAS

CITY           SKY/WX    TMP DP  RH WIND       PRES   REMARKS
FAYETTEVILLE   SUNNY     72  50  45 S12       29.76F
FORT SMITH     SUNNY     74  49  41 SE8       29.75F
HARRISON       SUNNY     69  52  54 S8        29.79F
BENTONVILLE    SUNNY     72  48  43 S9        29.76F
ROGERS         SUNNY     71  48  43 VRB7      29.76F
SILOAM SPGS      N/A     72  48  43 S15       29.75
HIGHFILL       SUNNY     73  50  44 S12       29.76
SPRINGDALE     SUNNY     70  46  43 SE8       29.78F
$$

ARZ004-005-016-251800-
NORTH CENTRAL ARKANSAS

CITY           SKY/WX    TMP DP  RH WIND       PRES   REMARKS
BATESVILLE     SUNNY     72  48  43 SW7       29.80F
FLIPPIN        SUNNY     70  46  43 SW5       29.77S
$$

ARZ040-041-251800-
WEST CENTRAL ARKANSAS

CITY           SKY/WX    TMP DP  RH WIND       PRES   REMARKS
MENA           SUNNY     73  50  43 S3        29.80S
MOUNT IDA      SUNNY     74  46  36 VRB5      29.78F
$$

ARZ009-017-025-026-028-251800-
NORTHEAST ARKANSAS

CITY           SKY/WX    TMP DP  RH WIND       PRES   REMARKS
JONESBORO      MOSUNNY   71  50  47 SW13G20   29.80S
WALNUT RIDGE   MOSUNNY   70  52  52 SW12      29.80S
BLYTHEVILLE    MOSUNNY   70  52  52 SW10      29.80S
NW BLYTHEVILLE MOSUNNY   72  52  49 W13G20    29.80S
$$

ARZ022-023-033-042-044-251800-
CENTRAL ARKANSAS

CITY           SKY/WX    TMP DP  RH WIND       PRES   REMARKS
LITTLE ROCK    SUNNY     73  51  46 S8        29.81F
N LITTLE ROCK    N/A     72  52  49 SW6       29.81F
JACKSONVILLE   SUNNY     73  51  46 SW10      29.80F
CONWAY           N/A     73  52  46 S9        29.79S
SEARCY         SUNNY     72  53  51 S8        29.83F
HOT SPRINGS    SUNNY     75  50  41 SW9       29.81F
RUSSELLVILLE   SUNNY     72  51  47 SW8       29.79F
CLINTON        FAIR      72  50  46 S10       29.80F
$$

ARZ036-251800-
EAST ARKANSAS

CITY           SKY/WX    TMP DP  RH WIND       PRES   REMARKS
WEST MEMPHIS   SUNNY     69  54  58 SW8       29.82R
$$

ARZ050-053-066-070-073-251800-
SOUTHWEST ARKANSAS

CITY           SKY/WX    TMP DP  RH WIND       PRES   REMARKS
ARKADELPHIA    FAIR      73  54  51 S5        29.82F
CAMDEN         SUNNY     75  48  38 SE7       29.82F
TEXARKANA      SUNNY     75  55  49 S12G17    29.80F
EL DORADO      SUNNY     74  52  46 SW7       29.84S
DE QUEEN       SUNNY     75  54  47 S7        29.76F
$$

ARZ056-057-069-251800-
SOUTHEAST ARKANSAS

CITY           SKY/WX    TMP DP  RH WIND       PRES   REMARKS
PINE BLUFF     SUNNY     72  52  49 VRB3      29.83F
STUTTGART      SUNNY     72  46  40 S8        29.84F
MONTICELLO     SUNNY     73  51  46 SW7       29.84F

$$





USA.gov is the U.S. government's official web portal to all federal, state and local government web resources and services.